This demonstration page uses our WeatherBlox Daily Observations layout. Learn more.

Left ArrowRight Arrow

Hourly Observations for April 10, 2023

Temp ( °F °C ) Dew Point ( °F °C ) Humidity (%) Winds ( mph kmh ) Pressure ( in mb ) Visibility ( mi km ) Precip ( " mm )
12:53 am 00:53 Mostly Cloudy 55 12.8 30 -1.1 38 38 SSE 6 9 30.36 1028 10 16 0.00 0.00
1:53 am 01:53 Partly Cloudy 54 12.2 30 -1.1 40 40 SSE 7 11 30.35 1028 10 16 0.00 0.00
2:53 am 02:53 Mostly Clear 53 11.7 30 -1.1 41 41 SSE 6 9 30.35 1028 10 16 0.00 0.00
3:53 am 03:53 Mostly Clear 51 10.6 29 -1.7 42 42 S 6 9 30.35 1028 10 16 0.00 0.00
4:53 am 04:53 Mostly Clear 50 10 29 -1.7 44 44 SSE 6 9 30.36 1028 10 16 0.00 0.00
5:53 am 05:53 Partly Cloudy 50 10 29 -1.7 44 44 S 5 7 30.37 1028 10 16 0.00 0.00
6:53 am 06:53 Partly Cloudy 49 9.4 30 -1.1 48 48 S 7 11 30.38 1029 10 16 0.00 0.00
7:53 am 07:53 Mostly Cloudy 52 11.1 30 -1.1 43 43 SSW 6 9 30.39 1029 10 16 0.00 0.00
8:53 am 08:53 Mostly Cloudy 58 14.4 30 -1.1 34 34 SSW 6 9 30.38 1029 10 16 0.00 0.00
9:53 am 09:53 Mostly Cloudy 61 16.1 29 -1.7 29 29 SSW 13 20 30.37 1029 10 16 0.00 0.00
10:53 am 10:53 Mostly Cloudy 64 17.8 30 -1.1 28 28 SSW 9 15 30.37 1029 10 16 0.00 0.00
11:53 am 11:53 Mostly Cloudy 65 18.3 31 -0.6 28 28 SW 8 13 30.36 1028 10 16 0.00 0.00
12:53 pm 12:53 Mostly Cloudy 68 20 30 -1.1 24 24 SW 9 15 30.33 1027 10 16 0.00 0.00
1:53 pm 13:53 Mostly Cloudy 68 20 29 -1.7 23 23 SW 9 15 30.32 1027 10 16 0.00 0.00
2:53 pm 14:53 Mostly Cloudy 70 21.1 29 -1.7 22 22 SW 10 17 30.29 1026 10 16 0.00 0.00
3:53 pm 15:53 Mostly Cloudy 69 20.6 27 -2.8 20 20 WSW 13 20 30.28 1025 10 16 0.00 0.00
4:53 pm 16:53 Partly Cloudy 71 21.7 29 -1.7 21 21 SW 14 22 30.26 1025 10 16 0.00 0.00
5:53 pm 17:53 Mostly Sunny 70 21.1 28 -2.2 21 21 SSW 9 15 30.25 1025 10 16 0.00 0.00
6:53 pm 18:53 Mostly Sunny 70 21.1 28 -2.2 21 21 SSW 8 13 30.24 1024 10 16 0.00 0.00
7:53 pm 19:53 Mostly Clear 67 19.4 29 -1.7 24 24 SW 6 9 30.26 1025 10 16 0.00 0.00
8:53 pm 20:53 Clear 66 18.9 29 -1.7 25 25 SSW 9 15 30.27 1025 10 16 0.00 0.00
9:53 pm 21:53 Clear 63 17.2 30 -1.1 29 29 S 6 9 30.27 1025 10 16 0.00 0.00
10:53 pm 22:53 Clear 61 16.1 30 -1.1 31 31 SSW 8 13 30.26 1025 10 16 0.00 0.00
11:53 pm 23:53 Clear 59 15 30 -1.1 33 33 SSW 7 11 30.26 1025 10 16 0.00 0.00

Powered by Vaisala Xweather